Hauptseite
METAR-TAF:

METAR-TAF

Flughäfen :

Hohenfels, Deutschland

Breite: 49-13N, Länge: 011-50E, Höhe: 442 m

Beobachtung

Neuester Wetterbericht von vor 20 Minuten, um 07:42 UTC
Wind 3 kt aus Südost
Temperatur 11°C
Luftfeuchtigkeit 100%
Luftdruck 1016 hPa
Sichtweite: 3200 m
Geschlossene Wolkendecke in der Höhe von 600 ft
Leichtregen, feuchter Dunst

METAR: ETIH 230742Z AUTO 13003KT 3200 -RA BR OVC006 11/11 A3000 RMK AO2 RAE0659DZB0659E38RAB38 SLP161 $

Zeit: 10:02 (08:02 UTC)


TAF: fehlend

Wetterbeobachtungen und Prognosen von mehr als 4000 Flughäfen (METAR und TAF Bericht).

Die verfügbaren Stationen werden durch gelbe und rote Markierungen auf der Karte dargestellt.

Führen Sie die Maus auf sie, um den Namen der Station zu sehen.

Darauf klicken, um die Beobachtung von Wetterbeobachtungen und Prognosen zu sehen.

Um die Karte zu ändern : klicken Sie auf den grünen Tasten mit einem schwarzen Kreuz Zum Vergrößern, auf den grünen Button mit einem Gedankenstrich zu verkleinern, oder auf die grünen Pfeile für benachbarte Karten.


METAR-TAF: